TAM9902 SBAT-SBSI

Flight info

Callsign TAM9902
Flight time 0h 27m
Altitude 16000
Route DARBA/N0322F150
Aircraft A20N/M-SDE2E3FGHIRWXY/LB1

Departure

Time 2026-05-01 14:56
Airport Piloto Osvaldo Marques Dias Airport (SBAT)

Arrival

Time 2026-05-01 15:23
Airport Presidente João Batista Figueiredo Airport (SBSI)
Time Latitude Longitude Altitude Speed Heading
2026-05-01 14:44 -9.87182 -56.10603 950 ft 0 kts 108°
2026-05-01 14:48 -9.87182 -56.10605 950 ft 0 kts 108°
2026-05-01 14:48 -9.87181 -56.10630 950 ft 2 kts 68°
2026-05-01 14:49 -9.87200 -56.10651 950 ft 1 kts 22°
2026-05-01 14:49 -9.87209 -56.10654 950 ft 0 kts 18°
2026-05-01 14:51 -9.87173 -56.10650 950 ft 3 kts 351°
2026-05-01 14:52 -9.87116 -56.10670 950 ft 5 kts 335°
2026-05-01 14:52 -9.87077 -56.10693 950 ft 7 kts 329°
2026-05-01 14:52 -9.86969 -56.10753 950 ft 10 kts 353°
2026-05-01 14:53 -9.86886 -56.10735 950 ft 18 kts 18°
2026-05-01 14:53 -9.86704 -56.10673 950 ft 33 kts 18°
2026-05-01 14:53 -9.86481 -56.10597 950 ft 33 kts 19°
2026-05-01 14:53 -9.86243 -56.10519 950 ft 35 kts 19°
2026-05-01 14:54 -9.86001 -56.10437 950 ft 36 kts 19°
2026-05-01 14:54 -9.85762 -56.10358 950 ft 35 kts 18°
2026-05-01 14:54 -9.85614 -56.10324 950 ft 4 kts 357°
2026-05-01 14:54 -9.85578 -56.10327 950 ft 4 kts 24°
2026-05-01 14:55 -9.85587 -56.10301 949 ft 6 kts 185°
2026-05-01 14:55 -9.85691 -56.10332 950 ft 47 kts 197°
2026-05-01 14:55 -9.86309 -56.10539 950 ft 135 kts 198°
2026-05-01 14:55 -9.87421 -56.10913 1112 ft 189 kts 195°
2026-05-01 14:56 -9.88756 -56.11379 1688 ft 215 kts 198°
2026-05-01 14:56 -9.90156 -56.11863 2742 ft 218 kts 193°
2026-05-01 14:56 -9.91626 -56.12165 3551 ft 220 kts 180°
2026-05-01 14:56 -9.93197 -56.12125 4194 ft 233 kts 169°
2026-05-01 14:57 -9.94883 -56.11961 4826 ft 253 kts 174°
2026-05-01 14:57 -9.98660 -56.11945 6246 ft 285 kts 178°
2026-05-01 14:57 -10.00653 -56.11980 7216 ft 287 kts 178°
2026-05-01 14:58 -10.02645 -56.12032 8128 ft 292 kts 179°
2026-05-01 14:58 -10.04701 -56.12090 9026 ft 296 kts 179°
2026-05-01 14:58 -10.06773 -56.12151 9869 ft 300 kts 179°
2026-05-01 14:58 -10.08881 -56.12216 10652 ft 307 kts 179°
2026-05-01 14:59 -10.11064 -56.12281 11292 ft 319 kts 178°
2026-05-01 14:59 -10.13310 -56.12348 12078 ft 324 kts 178°
2026-05-01 14:59 -10.15609 -56.12416 12882 ft 327 kts 178°
2026-05-01 14:59 -10.17892 -56.12483 13655 ft 330 kts 178°
2026-05-01 15:00 -10.22553 -56.12617 15109 ft 339 kts 177°
2026-05-01 15:00 -10.24955 -56.12685 15662 ft 344 kts 177°
2026-05-01 15:00 -10.27392 -56.12756 15954 ft 346 kts 178°
2026-05-01 15:01 -10.29804 -56.12826 15997 ft 347 kts 178°
2026-05-01 15:01 -10.32235 -56.12899 15993 ft 347 kts 178°
2026-05-01 15:01 -10.34669 -56.12971 15995 ft 347 kts 177°
2026-05-01 15:01 -10.37053 -56.12838 15986 ft 340 kts 161°
2026-05-01 15:02 -10.39228 -56.11970 16010 ft 334 kts 149°
2026-05-01 15:02 -10.40635 -56.11238 16015 ft 333 kts 148°
2026-05-01 15:02 -10.43400 -56.09765 16019 ft 333 kts 148°
2026-05-01 15:02 -10.45480 -56.08691 16013 ft 334 kts 149°
2026-05-01 15:03 -10.47586 -56.07634 16017 ft 334 kts 149°
2026-05-01 15:03 -10.49705 -56.06591 16017 ft 333 kts 150°
2026-05-01 15:03 -10.51794 -56.05574 16008 ft 333 kts 150°
2026-05-01 15:03 -10.53922 -56.04544 16007 ft 333 kts 150°
2026-05-01 15:04 -10.56029 -56.03531 16012 ft 334 kts 150°
2026-05-01 15:04 -10.58153 -56.02511 16013 ft 334 kts 150°
2026-05-01 15:04 -10.60270 -56.01498 16007 ft 334 kts 150°
2026-05-01 15:04 -10.62381 -56.00488 16011 ft 333 kts 150°
2026-05-01 15:05 -10.64471 -55.99488 16019 ft 333 kts 150°
2026-05-01 15:05 -10.66579 -55.98479 16012 ft 333 kts 150°
2026-05-01 15:05 -10.68684 -55.97471 16010 ft 333 kts 150°
2026-05-01 15:05 -10.70797 -55.96460 16021 ft 333 kts 150°
2026-05-01 15:06 -10.72930 -55.95440 16026 ft 333 kts 150°
2026-05-01 15:06 -10.75025 -55.94439 16015 ft 333 kts 150°
2026-05-01 15:06 -10.77151 -55.93421 16010 ft 333 kts 150°
2026-05-01 15:06 -10.79254 -55.92414 16020 ft 334 kts 150°
2026-05-01 15:07 -10.81375 -55.91399 16013 ft 334 kts 150°
2026-05-01 15:07 -10.83471 -55.90396 16009 ft 334 kts 150°
2026-05-01 15:07 -10.85576 -55.89386 16008 ft 334 kts 150°
2026-05-01 15:07 -10.87690 -55.88374 16006 ft 333 kts 150°
2026-05-01 15:08 -10.89790 -55.87368 16009 ft 333 kts 150°
2026-05-01 15:08 -10.91899 -55.86357 16005 ft 333 kts 150°
2026-05-01 15:08 -10.93987 -55.85357 16006 ft 332 kts 150°
2026-05-01 15:08 -10.96102 -55.84343 16007 ft 332 kts 150°
2026-05-01 15:09 -10.98185 -55.83344 16006 ft 333 kts 150°
2026-05-01 15:09 -11.00304 -55.82326 16002 ft 332 kts 150°
2026-05-01 15:09 -11.02388 -55.81326 16001 ft 333 kts 150°
2026-05-01 15:09 -11.04506 -55.80310 15817 ft 333 kts 150°
2026-05-01 15:10 -11.06629 -55.79292 15540 ft 332 kts 150°
2026-05-01 15:10 -11.10778 -55.77300 14787 ft 327 kts 150°
2026-05-01 15:10 -11.12830 -55.76313 14385 ft 325 kts 150°
2026-05-01 15:11 -11.14889 -55.75323 13973 ft 323 kts 150°
2026-05-01 15:11 -11.18925 -55.73384 13161 ft 319 kts 151°
2026-05-01 15:11 -11.20943 -55.72415 12761 ft 318 kts 151°
2026-05-01 15:12 -11.22934 -55.71458 12354 ft 316 kts 151°
2026-05-01 15:12 -11.26920 -55.69541 11480 ft 316 kts 151°
2026-05-01 15:12 -11.28906 -55.68586 11037 ft 315 kts 152°
2026-05-01 15:13 -11.34746 -55.65779 10006 ft 299 kts 152°
2026-05-01 15:14 -11.38481 -55.63984 9291 ft 291 kts 152°
2026-05-01 15:14 -11.40305 -55.63106 8912 ft 290 kts 152°
2026-05-01 15:14 -11.43932 -55.61363 8170 ft 284 kts 152°
2026-05-01 15:15 -11.47489 -55.59652 7452 ft 279 kts 152°
2026-05-01 15:15 -11.50965 -55.57974 6758 ft 273 kts 152°
2026-05-01 15:16 -11.54372 -55.56332 6079 ft 267 kts 152°
2026-05-01 15:16 -11.57731 -55.54707 5399 ft 263 kts 152°
2026-05-01 15:17 -11.60980 -55.53142 4990 ft 246 kts 152°
2026-05-01 15:18 -11.65474 -55.52344 4804 ft 213 kts 193°
2026-05-01 15:18 -11.66878 -55.52751 4648 ft 206 kts 194°
2026-05-01 15:19 -11.70985 -55.53925 4278 ft 198 kts 193°
2026-05-01 15:19 -11.73498 -55.54601 4020 ft 175 kts 193°
2026-05-01 15:19 -11.74642 -55.54906 3787 ft 163 kts 193°
2026-05-01 15:20 -11.76734 -55.55465 3399 ft 152 kts 192°
2026-05-01 15:20 -11.77768 -55.55740 3186 ft 153 kts 191°
2026-05-01 15:20 -11.78813 -55.56018 2968 ft 153 kts 191°
2026-05-01 15:21 -11.79841 -55.56293 2764 ft 154 kts 191°
2026-05-01 15:21 -11.80888 -55.56573 2555 ft 154 kts 191°
2026-05-01 15:21 -11.81918 -55.56850 2367 ft 150 kts 191°
2026-05-01 15:21 -11.82909 -55.57117 2135 ft 143 kts 190°
2026-05-01 15:22 -11.84805 -55.57626 1752 ft 140 kts 192°
2026-05-01 15:22 -11.85732 -55.57887 1573 ft 138 kts 193°
2026-05-01 15:22 -11.86663 -55.58143 1420 ft 137 kts 192°
2026-05-01 15:23 -11.87588 -55.58385 1234 ft 135 kts 193°
2026-05-01 15:23 -11.88363 -55.58591 1225 ft 77 kts 196°
2026-05-01 15:23 -11.88592 -55.58655 1226 ft 0 kts 195°
2026-05-01 15:23 -11.88652 -55.58673 1227 ft 11 kts 202°
2026-05-01 15:24 -11.88701 -55.58692 1227 ft 2 kts 118°
2026-05-01 15:24 -11.88672 -55.58683 1227 ft 6 kts 14°
2026-05-01 15:24 -11.88618 -55.58667 1226 ft 11 kts 15°
2026-05-01 15:24 -11.88499 -55.58636 1226 ft 28 kts 14°
2026-05-01 15:25 -11.88298 -55.58579 1225 ft 29 kts 14°
2026-05-01 15:25 -11.88101 -55.58526 1225 ft 28 kts 14°
2026-05-01 15:25 -11.87919 -55.58478 1224 ft 25 kts 13°
2026-05-01 15:25 -11.87828 -55.58385 1224 ft 18 kts 102°
2026-05-01 15:26 -11.87859 -55.58304 1224 ft 9 kts 143°
2026-05-01 15:26 -11.87913 -55.58289 1224 ft 6 kts 127°
2026-05-01 15:26 -11.87924 -55.58263 1224 ft 4 kts 107°
2026-05-01 15:26 -11.87929 -55.58246 1224 ft 1 kts 104°
2026-05-01 15:27 -11.87929 -55.58244 1224 ft 0 kts 104°